[[{"header":{"parameterUnit":"m.s-1","parameterCategory":1,"la1":30.2992,"la2":30.254,"lo1":-89.0895,"lo2":-89.0443,"dy":0.0025,"dx":0.0025,"nx":19,"ny":19,"refTime":"2026-05-07T03:00:00:Z","depth":0,"parameterNumber":2,"parameterNumberName":"U-component_of_WINDS"},"data":[0,0,0,3.319,3.3188,3.3116,3.3116,3.3042,3.3042,0,0,0,0,0,0,0,0,0,0,0,3.3224,3.3224,3.319,3.3188,3.3116,3.3116,3.3042,3.3042,0,0,0,0,0,0,0,0,0,0,0,3.3224,3.3224,3.3224,3.3188,3.3116,3.3116,3.3042,3.309,0,0,0,0,0,0,0,0,0,0,3.3156,3.3202,3.3224,3.3224,3.3188,3.3116,3.3116,3.3092,3.3087,3.3084,0,3.3086,0,3.3063,3.3038,3.3038,0,0,0,3.3178,3.3207,3.3175,3.3224,3.3187,3.3116,3.3146,3.3089,3.3083,3.3077,3.3085,3.3082,3.3062,3.3038,3.3038,3.3059,3.3059,0,0,3.3182,3.3218,3.3179,3.3172,3.3187,3.3148,3.3144,3.3085,3.3095,3.3085,3.308,3.3061,3.3038,3.3037,3.3058,3.3059,0,0,0,3.32,3.3222,3.3191,3.3176,3.3162,3.3146,3.3141,3.3098,3.3085,3.3079,3.306,3.3037,3.3037,3.3057,3.3058,3.3123,0,0,0,3.3202,3.3232,3.3193,3.3215,3.3163,3.3129,3.3156,3.3089,3.3081,3.306,3.3037,3.3036,3.3057,3.3058,3.312,3.3147,0,0,0,3.3224,3.3235,3.3229,3.3217,3.3188,3.3129,3.3113,3.3086,3.307,3.3038,3.3036,3.3056,3.3058,3.3117,3.3142,3.3162,0,0,0,3.3259,3.3288,3.3231,3.3256,3.3189,3.3171,3.3113,3.3097,3.3078,3.3037,3.3057,3.3058,3.3116,3.3139,3.316,3.3185,3.32,0,0,3.3316,3.3296,3.3308,3.3255,3.3257,3.3179,3.3189,3.3136,3.3099,3.3074,3.3074,3.3121,3.3142,3.3162,3.3271,3.3283,0,0,0,3.3339,3.3348,3.334,3.3324,3.3285,3.3252,3.3194,3.3173,3.315,3.3094,3.3133,3.3144,3.3154,3.3165,3.3175,3.318,3.3065,3.3065,3.3065,3.3472,3.3424,3.3439,3.3382,3.3367,3.3305,3.3287,3.3249,3.3205,3.3215,3.3206,3.3279,3.3292,3.33,3.3306,3.3217,3.3217,3.3218,3.3218,3.3551,3.3555,3.3495,3.3488,3.3436,3.3429,3.3371,3.3339,3.3323,3.3281,3.3287,3.3245,3.3314,3.3317,3.3222,3.3221,3.3221,3.322,3.322,3.3631,3.3625,3.3601,3.3571,3.3553,3.3493,3.3481,3.3434,3.3389,3.3395,3.338,3.3379,3.337,3.3392,3.3392,3.3392,3.3392,3.3393,3.3393,3.3724,3.3695,3.3691,3.3652,3.3634,3.3605,3.3543,3.3524,3.349,3.3456,3.3455,3.3408,3.3331,3.3312,3.3396,3.3396,3.3395,3.3395,3.3395,3.3819,3.379,3.3785,3.3767,3.3716,3.37,3.364,3.3604,3.3581,3.3576,3.3528,3.3479,3.3455,3.3447,3.343,3.354,3.354,3.354,3.354,3.3886,3.3869,3.3853,3.3827,3.3797,3.3743,3.3735,3.3687,3.3632,3.3614,3.3591,3.3566,3.356,3.3539,3.3528,3.3512,3.364,3.364,3.364,3.394,3.3919,3.3923,3.3871,3.3826,3.3789,3.378,3.3751,3.3683,3.3643,3.3598,3.3594,3.3552,3.3542,3.3501,3.3486,3.3455,0,0]},{"header":{"parameterUnit":"m.s-1","parameterCategory":1,"la1":30.2992,"la2":30.254,"lo1":-89.0895,"lo2":-89.0443,"dy":0.0025,"dx":0.0025,"nx":19,"ny":19,"refTime":"2026-05-07T03:00:00:Z","depth":0,"parameterNumber":3,"parameterNumberName":"V-component_of_WINDS"},"data":[0,0,0,5.6551,5.6554,5.6719,5.672,5.6934,5.6936,0,0,0,0,0,0,0,0,0,0,0,5.6502,5.6503,5.6551,5.6555,5.6719,5.672,5.6933,5.6936,0,0,0,0,0,0,0,0,0,0,0,5.6501,5.6503,5.6505,5.6555,5.6719,5.672,5.6933,5.6808,0,0,0,0,0,0,0,0,0,0,5.6648,5.6602,5.6502,5.6505,5.6556,5.6719,5.672,5.6802,5.6816,5.686,0,5.6897,0,5.692,5.695,5.6951,0,0,0,5.6555,5.659,5.6635,5.6505,5.6558,5.6719,5.6645,5.681,5.6825,5.6878,5.69,5.6908,5.6923,5.6951,5.6952,5.7201,5.7202,0,0,5.6546,5.6532,5.6624,5.6645,5.6617,5.664,5.665,5.6819,5.6843,5.6901,5.6913,5.6927,5.6953,5.6954,5.72,5.7201,0,0,0,5.652,5.6525,5.6566,5.6636,5.6665,5.6645,5.6657,5.6835,5.685,5.6915,5.6929,5.6954,5.6957,5.7199,5.72,5.7243,0,0,0,5.6514,5.651,5.6562,5.6555,5.6662,5.6752,5.6669,5.6838,5.6857,5.6928,5.6954,5.6959,5.7197,5.7199,5.7239,5.7266,0,0,0,5.6491,5.6507,5.6531,5.6553,5.6624,5.6749,5.6774,5.6842,5.6866,5.6951,5.6959,5.7196,5.7199,5.7235,5.726,5.7328,0,0,0,5.6463,5.6566,5.6531,5.6652,5.6622,5.6773,5.6773,5.6886,5.6964,5.6955,5.7197,5.72,5.7234,5.7257,5.7324,5.7384,5.7406,0,0,5.6585,5.658,5.6652,5.6626,5.678,5.675,5.6911,5.6996,5.7018,5.7139,5.7145,5.724,5.726,5.7327,5.7537,5.7555,0,0,0,5.6686,5.6738,5.6782,5.6855,5.6922,5.6983,5.7044,5.7077,5.718,5.7076,5.7283,5.7295,5.7335,5.7364,5.738,5.7417,5.7212,5.7212,5.7212,5.6839,5.686,5.6982,5.7024,5.7095,5.7159,5.7219,5.7274,5.7275,5.7324,5.736,5.7485,5.7518,5.753,5.7568,5.7392,5.7392,5.7392,5.7392,5.7021,5.7098,5.7098,5.7216,5.724,5.734,5.7406,5.7404,5.7502,5.7458,5.7495,5.7447,5.7549,5.7583,5.7396,5.7395,5.7395,5.7395,5.7394,5.7124,5.7165,5.7202,5.7311,5.7393,5.7433,5.7527,5.7545,5.7563,5.7599,5.7641,5.764,5.7643,5.7617,5.7618,5.7618,5.7618,5.7619,5.7619,5.7218,5.7258,5.7334,5.7415,5.7465,5.7534,5.7599,5.765,5.7711,5.7717,5.7718,5.7716,5.7554,5.7513,5.7626,5.7625,5.7624,5.7623,5.7623,5.7397,5.7359,5.7477,5.7528,5.7625,5.7707,5.7728,5.783,5.7875,5.7922,5.7912,5.7789,5.7786,5.7774,5.7741,5.7905,5.7905,5.7905,5.7905,5.7485,5.7485,5.7611,5.7691,5.7771,5.7803,5.7939,5.7992,5.8041,5.8071,5.805,5.8007,5.7994,5.7999,5.7982,5.7952,5.8166,5.8166,5.8167,5.7598,5.7606,5.7718,5.7764,5.7842,5.7909,5.8039,5.8132,5.818,5.8178,5.8095,5.8084,5.8016,5.7992,5.7988,5.7961,5.7906,0,0]}]]